Content
SEND FEEDBACK

Daily
Averages
Monthly
Summary
United States of America

MARKSVILLE, LOUISIANA


Home > North America > United States > Louisiana
Elevation: 78 feet     Latitude: 31 05N     Longitude: 092 04W

WEATHER
 
SELECT A DAY
Number of Records: 218,930;   Date Range: 1/1/95 - 8/12/14
 
SHARE

PRINT THIS DATA

[ ← Previous Day ]
WEATHER ALMANAC - JANUARY 24, 2013
[ Next Day → ]
[ °C ]   °F
Weather ElementAverageHighLow
Temperature56.4 °F73.4 °F (3:27 pm)46 °F (3:53 am)
Dewpoint51.8 °F60.8 °F (3:07 pm)44.6 °F (3:41 am)
Humidity85.6 %100 % (3:06 am)64 % (11:27 am)
Barometer30.25 in30.31 in (9:36 am)30.18 in (3:53 pm)
Wind Speed2.9 mph11.5 mph (11:27 am)
Weather ElementAverage
Visibility5.7 mi
Wind DirectionENE (82.3 °)

Weather ElementTotal
Precipitation---
Heating Degree Days5.3 (Base 65)
Growing Degree Days9.7 (Base 50)
Averaged from 52 records on January 24, 2013
WEATHER CONDITIONS BREAKOUT
WIND DIRECTION BREAKOUT
WEATHER BY HOUR - JANUARY 24, 2013
[ °C ]   °F
Local TimeTemperatureDewpointHumidityBarometerVisibilityWind DirectionWind SpeedGust SpeedPrecipitationEventsConditions
12:24 AM50.0 °F48.2 °F94 %30.27 in0.5 miCalmFogFog
12:29 AM50.0 °F48.2 °F94 %30.27 in1.0 miCalmMist
12:31 AM50.0 °F48.2 °F94 %30.27 in2.0 miCalmPartly Cloudy
12:38 AM50.0 °F48.2 °F94 %30.27 in5.0 miCalmPartly Cloudy
12:44 AM50.0 °F48.2 °F94 %30.27 in1.8 miCalmScattered Clouds
12:50 AM50.0 °F48.2 °F94 %30.27 in0.2 miCalmFogFog
12:53 AM50.0 °F48.0 °F93 %30.27 in0.2 miCalmFogFog
1:02 AM48.2 °F46.4 °F93 %30.27 in1.2 miCalmMostly Cloudy
1:05 AM48.2 °F46.4 °F93 %30.27 in4.0 miCalmOvercast
1:19 AM48.2 °F46.4 °F93 %30.27 in9.0 miCalmOvercast
1:53 AM48.9 °F46.9 °F93 %30.26 in4.0 miCalmOvercast
2:10 AM48.2 °F46.4 °F93 %30.26 in0.8 miCalmOvercast
2:22 AM48.2 °F46.4 °F93 %30.26 in0.2 miCalmFogFog
2:53 AM48.0 °F46.0 °F93 %30.26 in0.5 miCalmFogFog
2:59 AM48.2 °F46.4 °F93 %30.26 in2.0 miCalmMostly Cloudy
3:06 AM46.4 °F46.4 °F100 %30.26 in4.0 miCalmMostly Cloudy
3:16 AM46.4 °F46.4 °F100 %30.26 in2.5 miCalmMostly Cloudy
3:32 AM46.4 °F46.4 °F100 %30.26 in1.0 miCalmMist
3:41 AM46.4 °F44.6 °F93 %30.26 in3.0 miCalmOvercast
3:53 AM46.0 °F45.0 °F96 %30.26 in4.0 miCalmMostly Cloudy
3:56 AM46.4 °F44.6 °F93 %30.26 in1.8 miCalmMostly Cloudy
4:01 AM46.4 °F44.6 °F93 %30.26 in0.5 miCalmFogFog
4:24 AM48.2 °F46.4 °F93 %30.26 in0.2 miCalmFogFog
4:34 AM48.2 °F46.4 °F93 %30.26 in1.0 miCalmOvercast
4:39 AM48.2 °F46.4 °F93 %30.26 in3.0 miCalmOvercast
4:53 AM50.0 °F48.0 °F93 %30.27 in5.0 miCalmOvercast
5:12 AM50.0 °F48.2 °F94 %30.28 in6.0 miCalmOvercast
5:30 AM50.0 °F48.2 °F94 %30.28 in5.0 miCalmOvercast
5:53 AM51.1 °F48.9 °F92 %30.28 in5.0 miCalmOvercast
6:53 AM52.0 °F50.0 °F93 %30.29 in5.0 miCalmOvercast
7:53 AM54.0 °F52.0 °F93 %30.29 in5.0 miCalmOvercast
8:53 AM60.1 °F55.9 °F86 %30.30 in10.0 miSW (220°)4.6 mphMostly Cloudy
9:36 AM64.4 °F57.2 °F77 %30.31 in10.0 miWSW (240°)10.4 mphMostly Cloudy
9:53 AM66.9 °F57.9 °F73 %30.31 in10.0 miWSW (240°)9.2 mphMostly Cloudy
10:05 AM66.2 °F57.2 °F73 %30.31 in10.0 miWSW (240°)10.4 mphMostly Cloudy
10:53 AM69.1 °F59.0 °F70 %30.30 in10.0 miWSW (250°)10.4 mphScattered Clouds
11:27 AM71.6 °F59.0 °F64 %30.28 in10.0 miSW (220°)11.5 mphMostly Cloudy
11:53 AM70.0 °F59.0 °F68 %30.27 in10.0 miWSW (250°)10.4 mphOvercast
12:53 PM70.0 °F59.0 °F68 %30.24 in10.0 miWSW (240°)9.2 mphOvercast
1:53 PM71.1 °F59.0 °F66 %30.21 in10.0 miSW (230°)8.1 mphOvercast
2:53 PM73.0 °F60.1 °F64 %30.20 in10.0 miSW (220°)5.8 mphOvercast
3:07 PM71.6 °F60.8 °F69 %30.20 in10.0 miSW (230°)8.1 mphMostly Cloudy
3:27 PM73.4 °F60.8 °F65 %30.19 in10.0 miVariable3.5 mphMostly Cloudy
3:53 PM72.0 °F59.0 °F64 %30.18 in10.0 miSouth (170°)4.6 mphOvercast
4:53 PM72.0 °F59.0 °F64 %30.18 in10.0 miSSW (210°)4.6 mphMostly Cloudy
5:53 PM69.1 °F59.0 °F70 %30.19 in10.0 miSSW (210°)5.8 mphMostly Cloudy
6:53 PM66.9 °F59.0 °F76 %30.20 in10.0 miSouth (190°)5.8 mphScattered Clouds
7:53 PM64.9 °F59.0 °F81 %30.20 in10.0 miSouth (180°)3.5 mphPartly Cloudy
8:53 PM63.0 °F59.0 °F87 %30.19 in10.0 miSouth (190°)4.6 mphClear
9:53 PM62.1 °F57.9 °F86 %30.20 in10.0 miSouth (190°)5.8 mphClear
10:53 PM63.0 °F57.9 °F84 %30.20 in10.0 miSouth (180°)6.9 mphMostly Cloudy
11:53 PM62.1 °F57.0 °F84 %30.19 in10.0 miSouth (180°)6.9 mphMostly Cloudy
Hourly data recorded from KESF, located miles away from Marksville, Louisiana







STORIES FROM OUR PARTNERS